• In Uzbekistan
  • List of Countries
  • For 7 days
  • Water Temperature
  • Satellite Maps
  • Weather Map
  • Weather Widgets
  • user-avatar
    Login

    Hourly Weather Satif

    Today, 24 April, Monday

    Time Temperature Precipitation Wind Pressure Humidity
    00:00 +8°C° 0 mm 1 mps 671 mmHg 43%
    01:00 +8°C° 0 mm 1 mps 671 mmHg 42%
    02:00 +8°C° 0 mm 1 mps 671 mmHg 42%
    03:00 +8°C° 0 mm 1 mps 670 mmHg 42%
    04:00 +8°C° 0 mm 1 mps 671 mmHg 42%
    05:00 +9°C° 0 mm 1 mps 671 mmHg 41%
    06:00 +12°C° 0 mm 1 mps 671 mmHg 40%
    07:00 +15°C° 0 mm 1 mps 672 mmHg 35%
    08:00 +19°C° 0 mm 1 mps 673 mmHg 29%
    09:00 +22°C° 0 mm 1 mps 674 mmHg 23%
    10:00 +23°C° 0 mm 1 mps 674 mmHg 22%
    11:00 +24°C° 0 mm 1 mps 674 mmHg 21%
    12:00 +25°C° 0 mm 2 mps 674 mmHg 20%
    13:00 +25°C° 0 mm 2 mps 673 mmHg 21%
    14:00 +25°C° 0 mm 2 mps 673 mmHg 21%
    15:00 +25°C° 0 mm 2 mps 673 mmHg 22%
    16:00 +21°C° 0 mm 2 mps 672 mmHg 31%
    17:00 +19°C° 0 mm 1 mps 671 mmHg 41%
    18:00 +15°C° 0 mm 1 mps 670 mmHg 51%
    19:00 +14°C° 0 mm 1 mps 670 mmHg 56%
    20:00 +12°C° 0 mm 1 mps 670 mmHg 61%
    21:00 +10°C° 0 mm 1 mps 669 mmHg 67%
    22:00 +10°C° 0 mm 1 mps 669 mmHg 66%
    23:00 +10°C° 0 mm 1 mps 669 mmHg 65%

    Tomorrow, 25 April, Tuesday

    Time Temperature Precipitation Wind Pressure Humidity
    00:00 +10°C° 0 mm 1 mps 669 mmHg 65%
    01:00 +10°C° 0 mm 1 mps 668 mmHg 64%
    02:00 +10°C° 0 mm 1 mps 668 mmHg 63%
    03:00 +10°C° 0 mm 1 mps 668 mmHg 62%
    04:00 +11°C° 0 mm 1 mps 668 mmHg 57%
    05:00 +12°C° 0 mm 1 mps 668 mmHg 52%
    06:00 +13°C° 0 mm 1 mps 669 mmHg 47%
    07:00 +16°C° 0 mm 1 mps 670 mmHg 38%
    08:00 +21°C° 0 mm 1 mps 670 mmHg 30%
    09:00 +24°C° 0 mm 1 mps 671 mmHg 21%
    10:00 +25°C° 0 mm 1 mps 671 mmHg 21%
    11:00 +26°C° 0 mm 2 mps 671 mmHg 20%
    12:00 +27°C° 0 mm 2 mps 671 mmHg 19%
    13:00 +26°C° 0 mm 2 mps 670 mmHg 20%
    14:00 +26°C° 0 mm 2 mps 670 mmHg 21%
    15:00 +26°C° 0 mm 3 mps 669 mmHg 22%
    16:00 +23°C° 0 mm 2 mps 669 mmHg 31%
    17:00 +19°C° 0 mm 2 mps 668 mmHg 39%
    18:00 +18°C° 0 mm 1 mps 667 mmHg 47%
    19:00 +16°C° 0 mm 1 mps 668 mmHg 51%
    20:00 +15°C° 0 mm 1 mps 668 mmHg 54%
    21:00 +14°C° 0 mm 1 mps 668 mmHg 57%
    22:00 +14°C° 0 mm 1 mps 668 mmHg 57%
    23:00 +13°C° 0 mm 1 mps 667 mmHg 57%

    Day after tomorrow, 26 April, Wednesday

    Time Temperature Precipitation Wind Pressure Humidity
    00:00 +12°C° 0 mm 1 mps 667 mmHg 56%
    01:00 +12°C° 0 mm 1 mps 667 mmHg 57%
    02:00 +12°C° 0 mm 1 mps 666 mmHg 58%
    03:00 +11°C° 0 mm 1 mps 666 mmHg 59%
    04:00 +12°C° 0 mm 1 mps 667 mmHg 58%
    05:00 +13°C° 0 mm 1 mps 667 mmHg 58%
    06:00 +14°C° 0 mm 1 mps 667 mmHg 57%
    07:00 +18°C° 0 mm 1 mps 668 mmHg 49%
    08:00 +20°C° 0 mm 2 mps 669 mmHg 41%
    09:00 +24°C° 0 mm 2 mps 670 mmHg 33%
    10:00 +25°C° 0 mm 3 mps 670 mmHg 32%
    11:00 +25°C° 0 mm 3 mps 670 mmHg 31%
    12:00 +26°C° 0 mm 4 mps 670 mmHg 30%
    13:00 +25°C° 0.2 mm 4 mps 670 mmHg 33%
    14:00 +23°C° 0.2 mm 4 mps 669 mmHg 37%
    15:00 +22°C° 0.2 mm 4 mps 669 mmHg 41%
    16:00 +20°C° 1.1 mm 3 mps 669 mmHg 54%
    17:00 +17°C° 1.1 mm 2 mps 668 mmHg 68%
    18:00 +15°C° 1.1 mm 2 mps 668 mmHg 81%
    19:00 +14°C° 0.4 mm 2 mps 668 mmHg 84%
    20:00 +13°C° 0.4 mm 1 mps 668 mmHg 87%
    21:00 +12°C° 0.4 mm 1 mps 668 mmHg 89%
    22:00 +12°C° 1.1 mm 1 mps 668 mmHg 89%
    23:00 +13°C° 1.1 mm 1 mps 668 mmHg 90%

    27 April, Thursday

    Time Temperature Precipitation Wind Pressure Humidity
    00:00 +13°C° 1.1 mm 2 mps 668 mmHg 90%
    01:00 +13°C° 0.6 mm 1 mps 668 mmHg 90%
    02:00 +13°C° 0.6 mm 1 mps 668 mmHg 91%
    03:00 +12°C° 0.6 mm 1 mps 667 mmHg 91%
    04:00 +13°C° 0.2 mm 1 mps 667 mmHg 89%
    05:00 +13°C° 0.2 mm 1 mps 667 mmHg 86%
    06:00 +14°C° 0.2 mm 1 mps 668 mmHg 84%
    07:00 +16°C° 0.1 mm 2 mps 668 mmHg 74%
    08:00 +18°C° 0.1 mm 2 mps 669 mmHg 64%
    09:00 +21°C° 0.1 mm 3 mps 670 mmHg 54%
    10:00 +21°C° 0.5 mm 3 mps 669 mmHg 52%
    11:00 +21°C° 0.5 mm 3 mps 669 mmHg 50%
    12:00 +22°C° 0.5 mm 3 mps 669 mmHg 48%
    13:00 +21°C° 0.7 mm 3 mps 669 mmHg 52%
    14:00 +21°C° 0.7 mm 3 mps 669 mmHg 55%
    15:00 +20°C° 0.7 mm 3 mps 669 mmHg 59%
    16:00 +18°C° 1.1 mm 3 mps 669 mmHg 68%
    17:00 +17°C° 1.1 mm 3 mps 668 mmHg 78%
    18:00 +14°C° 1.1 mm 3 mps 668 mmHg 87%
    19:00 +13°C° 0.9 mm 3 mps 669 mmHg 89%
    20:00 +12°C° 0.9 mm 3 mps 670 mmHg 91%
    21:00 +12°C° 0.9 mm 3 mps 670 mmHg 93%
    22:00 +12°C° 0.3 mm 2 mps 670 mmHg 93%
    23:00 +12°C° 0.3 mm 2 mps 670 mmHg 93%

    28 April, Friday

    Time Temperature Precipitation Wind Pressure Humidity
    00:00 +12°C° 0.3 mm 2 mps 670 mmHg 94%
    01:00 +10°C° 0.1 mm 2 mps 670 mmHg 94%
    02:00 +10°C° 0.1 mm 2 mps 670 mmHg 95%
    03:00 +10°C° 0.1 mm 2 mps 669 mmHg 95%
    04:00 +10°C° 0 mm 2 mps 670 mmHg 94%
    05:00 +9°C° 0 mm 2 mps 670 mmHg 93%
    06:00 +9°C° 0 mm 3 mps 670 mmHg 93%
    07:00 +10°C° 0 mm 3 mps 671 mmHg 89%
    08:00 +10°C° 0 mm 3 mps 671 mmHg 86%
    09:00 +11°C° 0 mm 3 mps 672 mmHg 83%
    10:00 +11°C° 0 mm 3 mps 672 mmHg 80%
    11:00 +12°C° 0 mm 3 mps 672 mmHg 77%
    12:00 +12°C° 0 mm 3 mps 672 mmHg 75%
    13:00 +12°C° 0 mm 3 mps 671 mmHg 73%
    14:00 +14°C° 0 mm 2 mps 671 mmHg 71%
    15:00 +14°C° 0 mm 2 mps 671 mmHg 70%
    16:00 +13°C° 0.1 mm 2 mps 671 mmHg 74%
    17:00 +12°C° 0.1 mm 2 mps 671 mmHg 78%
    18:00 +10°C° 0.1 mm 2 mps 671 mmHg 81%
    19:00 +10°C° 0.1 mm 2 mps 671 mmHg 85%
    20:00 +9°C° 0.1 mm 2 mps 671 mmHg 88%
    21:00 +8°C° 0.1 mm 2 mps 671 mmHg 91%
    22:00 +9°C° 0.8 mm 1 mps 671 mmHg 92%
    23:00 +9°C° 0.8 mm 1 mps 671 mmHg 94%

    29 April, Saturday

    Time Temperature Precipitation Wind Pressure Humidity
    00:00 +8°C° 0.8 mm 1 mps 671 mmHg 95%
    01:00 +8°C° 0.5 mm 1 mps 670 mmHg 95%
    02:00 +8°C° 0.5 mm 1 mps 670 mmHg 96%
    03:00 +8°C° 0.5 mm 1 mps 670 mmHg 96%
    04:00 +9°C° 0.2 mm 1 mps 670 mmHg 95%
    05:00 +10°C° 0.2 mm 1 mps 670 mmHg 93%
    06:00 +10°C° 0.2 mm 1 mps 671 mmHg 92%
    07:00 +12°C° 0.1 mm 1 mps 671 mmHg 86%
    08:00 +14°C° 0.1 mm 1 mps 672 mmHg 80%
    09:00 +16°C° 0.1 mm 1 mps 672 mmHg 73%
    10:00 +17°C° 0.2 mm 2 mps 672 mmHg 69%
    11:00 +18°C° 0.2 mm 2 mps 672 mmHg 64%
    12:00 +19°C° 0.2 mm 2 mps 672 mmHg 59%
    13:00 +19°C° 0.3 mm 2 mps 672 mmHg 57%
    14:00 +19°C° 0.3 mm 2 mps 671 mmHg 56%
    15:00 +20°C° 0.3 mm 2 mps 671 mmHg 55%
    16:00 +18°C° 0.5 mm 2 mps 671 mmHg 62%
    17:00 +16°C° 0.5 mm 2 mps 670 mmHg 70%
    18:00 +15°C° 0.5 mm 1 mps 670 mmHg 77%
    19:00 +14°C° 0.5 mm 1 mps 670 mmHg 80%
    20:00 +13°C° 0.5 mm 1 mps 670 mmHg 83%
    21:00 +12°C° 0.5 mm 2 mps 670 mmHg 86%
    22:00 +12°C° 0.1 mm 2 mps 670 mmHg 86%
    23:00 +12°C° 0.1 mm 2 mps 669 mmHg 86%
    Show more